Weather History for KBLM - March, 2014

Change the Weather History Date:

Tuesday, March 18, 2014

  Actual Average Record
Temperature  
Mean Temperature 34 °F -  
Max Temperature 37 °F 46 °F 75 °F (2011)
Min Temperature 30 °F 31 °F 26 °F (2006)
Degree Days  
Heating Degree Days 32    
Moisture  
Dew Point 17 °F    
Average Humidity 52    
Maximum Humidity 70    
Minimum Humidity 36    
Precipitation  
Precipitation 0.00 in - - ()
Sea Level Pressure  
Sea Level Pressure 30.21 in    
Wind  
Wind Speed 9 mph (ENE)    
Max Wind Speed 20 mph    
Max Gust Speed 25 mph    
Visibility 10 miles    
Events      
Averages and records for this station are not official NWS values.
T = Trace of Precipitation, MM = Missing Value Source: NWS Daily Summary

Daily Weather History Graph

Daily Weather History Graph

Search for Another Location

Airport or City:

Trip Planner

Search our weather history database for the weather conditions in past years. The results will help you decide how hot, cold, wet, or windy it might be!

Date:

Astronomy

Mar. 18, 2014 Rise Set
Actual Time 7:03 AM EDT 7:06 PM EDT
Civil Twilight 6:36 AM EDT 7:33 PM EDT
Nautical Twilight 6:04 AM EDT 8:05 PM EDT
Astronomical Twilight 5:32 AM EDT 8:37 PM EDT
Moon 9:21 PM EDT (3/18) 7:50 AM EDT (3/18)
Length of Visible Light 12h 57m
Length of Day
12h 03m
Waning Gibbous, 96% of the Moon is Illuminated
Mar 18
Waning Gibbous
Mar 23
Last Quarter
Mar 30
New
Apr 7
First Quarter
Apr 15
Full

Hourly Weather History & Observations

Time (EDT) Temp. Windchill Dew Point Humidity Pressure Visibility Wind Dir Wind Speed Gust Speed Precip Events Conditions
12:15 AM 30.2 °F 25.4 °F 10.4 °F 44% 30.11 in 10.0 mi NE 4.6 mph - N/A   Overcast
12:35 AM 30.2 °F 25.4 °F 10.4 °F 44% 30.11 in 10.0 mi ENE 4.6 mph - N/A   Overcast
12:55 AM 30.2 °F 24.3 °F 10.4 °F 44% 30.11 in 10.0 mi NE 5.8 mph - N/A   Overcast
1:15 AM 30.2 °F 24.3 °F 8.6 °F 40% 30.11 in 10.0 mi NE 5.8 mph - N/A   Overcast
1:35 AM 30.2 °F 24.3 °F 10.4 °F 44% 30.11 in 10.0 mi NE 5.8 mph - N/A   Overcast
1:55 AM 30.2 °F 23.4 °F 10.4 °F 44% 30.12 in 10.0 mi ENE 6.9 mph - N/A   Overcast
2:15 AM 30.2 °F 25.4 °F 10.4 °F 44% 30.11 in 10.0 mi ENE 4.6 mph - N/A   Overcast
2:35 AM 30.2 °F 24.3 °F 10.4 °F 44% 30.12 in 10.0 mi NE 5.8 mph - N/A   Overcast
2:55 AM 30.2 °F 23.4 °F 12.2 °F 47% 30.12 in 10.0 mi NE 6.9 mph - N/A   Overcast
3:15 AM 30.2 °F 23.4 °F 12.2 °F 47% 30.12 in 10.0 mi NE 6.9 mph - N/A   Overcast
3:35 AM 30.2 °F 25.4 °F 12.2 °F 47% 30.12 in 10.0 mi ENE 4.6 mph - N/A   Overcast
3:55 AM 30.2 °F 24.3 °F 12.2 °F 47% 30.12 in 10.0 mi ENE 5.8 mph - N/A   Overcast
4:15 AM 30.2 °F 24.3 °F 12.2 °F 47% 30.12 in 10.0 mi NE 5.8 mph - N/A   Mostly Cloudy
4:35 AM 30.2 °F 24.3 °F 12.2 °F 47% 30.12 in 10.0 mi ENE 5.8 mph - N/A   Scattered Clouds
4:55 AM 30.2 °F 24.3 °F 12.2 °F 47% 30.13 in 10.0 mi NE 5.8 mph - N/A   Mostly Cloudy
5:15 AM 30.2 °F 23.4 °F 12.2 °F 47% 30.13 in 10.0 mi NNE 6.9 mph - N/A   Overcast
5:35 AM 30.2 °F 23.4 °F 12.2 °F 47% 30.13 in 10.0 mi NNE 6.9 mph - N/A   Scattered Clouds
5:55 AM 30.2 °F 22.6 °F 14.0 °F 51% 30.12 in 10.0 mi NE 8.1 mph - N/A   Mostly Cloudy
6:15 AM 30.2 °F 23.4 °F 14.0 °F 51% 30.13 in 10.0 mi NNE 6.9 mph - N/A   Overcast
6:35 AM 30.2 °F 24.3 °F 14.0 °F 51% 30.15 in 10.0 mi NE 5.8 mph - N/A   Overcast
6:55 AM 30.2 °F 21.3 °F 15.8 °F 55% 30.17 in 10.0 mi ENE 10.4 mph - N/A   Overcast
7:15 AM 30.2 °F 22.6 °F 17.6 °F 60% 30.19 in 10.0 mi ENE 8.1 mph - N/A   Mostly Cloudy
7:35 AM 30.2 °F 20.8 °F 19.4 °F 64% 30.21 in 10.0 mi ENE 11.5 mph - N/A   Overcast
7:55 AM 32.0 °F 22.5 °F 19.4 °F 60% 30.23 in 10.0 mi ENE 12.7 mph 17.3 mph N/A   Overcast
8:15 AM 32.0 °F 22.1 °F 19.4 °F 60% 30.22 in 10.0 mi ENE 13.8 mph 18.4 mph N/A   Overcast
8:35 AM 33.8 °F 24.3 °F 19.4 °F 56% 30.22 in 10.0 mi NE 13.8 mph 18.4 mph N/A   Overcast
8:55 AM 33.8 °F 24.3 °F 19.4 °F 56% 30.21 in 10.0 mi ENE 13.8 mph 23.0 mph N/A   Overcast
9:15 AM 33.8 °F 23.5 °F 19.4 °F 56% 30.21 in 10.0 mi ENE 16.1 mph 19.6 mph N/A   Overcast
9:35 AM 33.8 °F 24.8 °F 19.4 °F 56% 30.21 in 10.0 mi ENE 12.7 mph 20.7 mph N/A   Overcast
9:55 AM 33.8 °F 24.8 °F 19.4 °F 56% 30.22 in 10.0 mi ENE 12.7 mph 20.7 mph N/A   Overcast
10:15 AM 33.8 °F 22.8 °F 19.4 °F 56% 30.22 in 10.0 mi ENE 18.4 mph 23.0 mph N/A   Mostly Cloudy
10:35 AM 35.6 °F 26.2 °F 19.4 °F 52% 30.23 in 10.0 mi NE 15.0 mph 23.0 mph N/A   Partly Cloudy
10:55 AM 35.6 °F 25.9 °F 19.4 °F 52% 30.26 in 10.0 mi NE 16.1 mph 23.0 mph N/A   Mostly Cloudy
11:15 AM 35.6 °F 24.8 °F 21.2 °F 56% 30.24 in 10.0 mi ENE 19.6 mph 24.2 mph N/A   Overcast
11:35 AM 35.6 °F 26.6 °F 21.2 °F 56% 30.23 in 10.0 mi ENE 13.8 mph 23.0 mph N/A   Mostly Cloudy
11:55 AM 35.6 °F 25.5 °F 19.4 °F 52% 30.25 in 10.0 mi ENE 17.3 mph 24.2 mph N/A   Mostly Cloudy
12:15 PM 35.6 °F 24.8 °F 21.2 °F 56% 30.25 in 10.0 mi East 19.6 mph 24.2 mph N/A   Overcast
12:35 PM 35.6 °F 27.5 °F 19.4 °F 52% 30.26 in 10.0 mi East 11.5 mph 20.7 mph N/A   Mostly Cloudy
12:55 PM 35.6 °F 25.2 °F 19.4 °F 52% 30.25 in 10.0 mi ENE 18.4 mph 23.0 mph N/A   Mostly Cloudy
1:15 PM 35.6 °F 25.9 °F 19.4 °F 52% 30.26 in 10.0 mi ENE 16.1 mph 25.3 mph N/A   Partly Cloudy
1:35 PM 35.6 °F 26.2 °F 19.4 °F 52% 30.27 in 10.0 mi East 15.0 mph 23.0 mph N/A   Clear
1:55 PM 35.6 °F 25.9 °F 17.6 °F 48% 30.26 in 10.0 mi East 16.1 mph 19.6 mph N/A   Clear
2:15 PM 37.4 °F 28.2 °F 17.6 °F 45% 30.26 in 10.0 mi East 16.1 mph 21.9 mph N/A   Clear
2:35 PM 37.4 °F 28.9 °F 15.8 °F 41% 30.26 in 10.0 mi ENE 13.8 mph 21.9 mph N/A   Clear
2:55 PM 37.4 °F 28.2 °F 15.8 °F 41% 30.26 in 10.0 mi ENE 16.1 mph 20.7 mph N/A   Clear
3:15 PM 37.4 °F 29.3 °F 15.8 °F 41% 30.27 in 10.0 mi East 12.7 mph 21.9 mph N/A   Clear
3:35 PM 37.4 °F 29.3 °F 15.8 °F 41% 30.27 in 10.0 mi East 12.7 mph 18.4 mph N/A   Clear
3:55 PM 37.4 °F 28.5 °F 12.2 °F 36% 30.26 in 10.0 mi East 15.0 mph 19.6 mph N/A   Clear
4:15 PM 37.4 °F 29.3 °F 14.0 °F 38% 30.25 in 10.0 mi ENE 12.7 mph - N/A   Clear
4:35 PM 37.4 °F 28.9 °F 12.2 °F 36% 30.26 in 10.0 mi East 13.8 mph 17.3 mph N/A   Clear
4:55 PM 37.4 °F 29.3 °F 12.2 °F 36% 30.25 in 10.0 mi ENE 12.7 mph - N/A   Clear
5:15 PM 37.4 °F 29.3 °F 14.0 °F 38% 30.26 in 10.0 mi East 12.7 mph - N/A   Clear
5:35 PM 35.6 °F 26.2 °F 15.8 °F 44% 30.26 in 10.0 mi East 15.0 mph - N/A   Clear
5:55 PM 35.6 °F 26.6 °F 17.6 °F 48% 30.26 in 10.0 mi East 13.8 mph - N/A   Clear
6:15 PM 35.6 °F 26.6 °F 19.4 °F 52% 30.26 in 10.0 mi ENE 13.8 mph 19.6 mph N/A   Clear
6:35 PM 35.6 °F 28.6 °F 21.2 °F 56% 30.26 in 10.0 mi East 9.2 mph - N/A   Clear
6:55 PM 35.6 °F 28.6 °F 21.2 °F 56% 30.26 in 10.0 mi East 9.2 mph 16.1 mph N/A   Clear
7:15 PM 33.8 °F 26.4 °F 21.2 °F 60% 30.26 in 10.0 mi ENE 9.2 mph - N/A   Clear
7:35 PM 33.8 °F 28.6 °F 21.2 °F 60% 30.26 in 10.0 mi ENE 5.8 mph - N/A   Clear
7:55 PM 33.8 °F 27.0 °F 21.2 °F 60% 30.26 in 10.0 mi East 8.1 mph - N/A   Clear
8:15 PM 33.8 °F 27.0 °F 21.2 °F 60% 30.27 in 10.0 mi East 8.1 mph - N/A   Clear
8:35 PM 33.8 °F 25.8 °F 21.2 °F 60% 30.27 in 10.0 mi East 10.4 mph - N/A   Clear
8:55 PM 33.8 °F 25.8 °F 23.0 °F 65% 30.27 in 10.0 mi East 10.4 mph - N/A   Clear
9:15 PM 33.8 °F 24.8 °F 24.8 °F 70% 30.27 in 10.0 mi East 12.7 mph 16.1 mph N/A   Clear
9:35 PM 35.6 °F 27.1 °F 24.8 °F 65% 30.27 in 10.0 mi East 12.7 mph - N/A   Clear
9:55 PM 35.6 °F 26.6 °F 23.0 °F 60% 30.27 in 10.0 mi East 13.8 mph 18.4 mph N/A   Clear
10:15 PM 35.6 °F 27.1 °F 24.8 °F 65% 30.26 in 10.0 mi East 12.7 mph - N/A   Clear
10:35 PM 35.6 °F 28.6 °F 24.8 °F 65% 30.27 in 10.0 mi ENE 9.2 mph - N/A   Clear
10:55 PM 35.6 °F 27.5 °F 24.8 °F 65% 30.27 in 10.0 mi East 11.5 mph - N/A   Clear
11:15 PM 35.6 °F 27.5 °F 24.8 °F 65% 30.27 in 10.0 mi East 11.5 mph - N/A   Clear
11:35 PM 35.6 °F 29.2 °F 24.8 °F 65% 30.27 in 10.0 mi East 8.1 mph - N/A   Clear
11:55 PM 33.8 °F 27.0 °F 24.8 °F 70% 30.26 in 10.0 mi East 8.1 mph - N/A   Clear